The Dalles, WA

9:33 PM PDT on October 19, 2017 (GMT -0700)
Columbia Gorge Regional-The Dalles

Weather History for KDLS - April, 2014

Change the Weather History Date:

Sunday, April 6, 2014

  Actual Average Record
Temperature  
Mean Temperature 58 °F -  
Max Temperature 68 °F 62 °F 86 °F (1977)
Min Temperature 50 °F 38 °F 28 °F (1975)
Degree Days  
Heating Degree Days 7    
Growing Degree Days 8 (Base 50)    
Moisture  
Dew Point 46 °F    
Average Humidity 65    
Maximum Humidity 80    
Minimum Humidity 47    
Precipitation  
Precipitation 0.00 in - - ()
Sea Level Pressure  
Sea Level Pressure 30.20 in    
Wind  
Wind Speed 11 mph (WNW)    
Max Wind Speed 22 mph    
Max Gust Speed 31 mph    
Visibility 10 miles    
Events Rain    
Averages and records for this station are not official NWS values.
T = Trace of Precipitation, MM = Missing Value Source: NWS Daily Summary

Daily Weather History Graph

Daily Weather History Graph

Search for Another Location

Airport or City:

Trip Planner

Search our weather history database for the weather conditions in past years. The results will help you decide how hot, cold, wet, or windy it might be!

Date:

Astronomy

Apr. 06, 2014 Rise Set
Actual Time 6:35 AM PDT 7:39 PM PDT
Civil Twilight 6:04 AM PDT 8:09 PM PDT
Nautical Twilight 5:28 AM PDT 8:46 PM PDT
Astronomical Twilight 4:50 AM PDT 9:24 PM PDT
Moon 11:31 AM PDT (4/6) 1:49 AM PDT (4/6)
Length of Visible Light 14h 05m
Length of Day
13h 04m
Waxing Crescent, 45% of the Moon is Illuminated
Apr 6
Waxing Crescent
Apr 7
First Quarter
Apr 15
Full
Apr 22
Last Quarter
Apr 28
New

Hourly Weather History & Observations

Time (PDT) Temp. Dew Point Humidity Pressure Visibility Wind Dir Wind Speed Gust Speed Precip Events Conditions
12:53 AM 52.0 °F 43.0 °F 71% 30.10 in 10.0 mi NNW 15.0 mph - N/A   Overcast
1:53 AM 52.0 °F 43.0 °F 71% 30.12 in 10.0 mi NNW 13.8 mph - N/A   Overcast
2:53 AM 51.1 °F 43.0 °F 74% 30.12 in 10.0 mi NNW 13.8 mph - N/A   Overcast
3:53 AM 51.1 °F 43.0 °F 74% 30.12 in 10.0 mi NNW 11.5 mph - N/A   Overcast
4:53 AM 51.1 °F 43.0 °F 74% 30.13 in 10.0 mi Calm Calm - N/A   Overcast
5:53 AM 50.0 °F 44.1 °F 80% 30.14 in 10.0 mi South 3.5 mph - N/A   Overcast
6:53 AM 50.0 °F 44.1 °F 80% 30.16 in 10.0 mi Calm Calm - N/A   Overcast
7:53 AM 51.1 °F 45.0 °F 80% 30.19 in 9.0 mi Calm Calm - 0.00 in Rain Light Rain
8:53 AM 54.0 °F 46.0 °F 75% 30.20 in 10.0 mi Calm Calm - 0.00 in   Overcast
9:53 AM 57.0 °F 48.0 °F 72% 30.20 in 10.0 mi West 6.9 mph - N/A   Overcast
10:53 AM 62.1 °F 48.9 °F 62% 30.21 in 10.0 mi NW 11.5 mph 17.3 mph N/A   Clear
11:53 AM 64.0 °F 48.0 °F 56% 30.21 in 10.0 mi NW 17.3 mph - N/A   Clear
12:53 PM 66.0 °F 48.0 °F 52% 30.21 in 10.0 mi WNW 16.1 mph - N/A   Clear
1:53 PM 66.0 °F 48.0 °F 52% 30.21 in 10.0 mi NW 16.1 mph - N/A   Clear
2:53 PM 66.9 °F 46.0 °F 47% 30.22 in 10.0 mi NW 18.4 mph - N/A   Clear
3:53 PM 66.9 °F 46.0 °F 47% 30.22 in 10.0 mi NW 21.9 mph 28.8 mph N/A   Clear
4:53 PM 64.9 °F 45.0 °F 48% 30.23 in 10.0 mi NW 21.9 mph 31.1 mph N/A   Clear
5:53 PM 64.9 °F 45.0 °F 48% 30.23 in 10.0 mi WNW 16.1 mph - N/A   Clear
6:53 PM 63.0 °F 46.0 °F 54% 30.23 in 10.0 mi WNW 12.7 mph - N/A   Clear
7:53 PM 61.0 °F 46.0 °F 58% 30.25 in 10.0 mi NW 13.8 mph - N/A   Clear
8:53 PM 59.0 °F 46.0 °F 62% 30.26 in 10.0 mi WNW 15.0 mph - N/A   Clear
9:53 PM 57.9 °F 46.0 °F 65% 30.27 in 10.0 mi WNW 8.1 mph - N/A   Clear
10:53 PM 55.0 °F 46.0 °F 72% 30.27 in 10.0 mi SE 6.9 mph - N/A   Clear
11:53 PM 53.1 °F 46.0 °F 77% 30.28 in 10.0 mi SSW 3.5 mph - N/A   Clear